[[{"header":{"parameterUnit":"m.s-1","parameterCategory":1,"la1":30.2992,"la2":30.254,"lo1":-89.0895,"lo2":-89.0443,"dy":0.0025,"dx":0.0025,"nx":19,"ny":19,"refTime":"2026-03-18T09:00:00:Z","depth":0,"parameterNumber":2,"parameterNumberName":"U-component_of_WINDS"},"data":[0,0,0,0.1387,0.1386,0.1375,0.1375,0.135,0.1349,0,0,0,0,0,0,0,0,0,0,0,0.1384,0.1384,0.1387,0.1386,0.1375,0.1375,0.135,0.1349,0,0,0,0,0,0,0,0,0,0,0,0.1384,0.1384,0.1384,0.1386,0.1375,0.1375,0.135,0.1362,0,0,0,0,0,0,0,0,0,0,0.1374,0.1367,0.1384,0.1384,0.1386,0.1375,0.1375,0.1363,0.1361,0.135,0,0.134,0,0.1344,0.1347,0.1347,0,0,0,0.139,0.1368,0.137,0.1383,0.1386,0.1375,0.1381,0.1362,0.136,0.1348,0.1339,0.1339,0.1344,0.1347,0.1346,0.127,0.127,0,0,0.1391,0.1379,0.1372,0.1369,0.1372,0.1382,0.1381,0.1361,0.1351,0.1339,0.1338,0.1343,0.1346,0.1346,0.1271,0.127,0,0,0,0.139,0.1379,0.1382,0.137,0.1369,0.1381,0.138,0.1351,0.1354,0.1338,0.1343,0.1346,0.1346,0.1272,0.1271,0.1231,0,0,0,0.139,0.1379,0.1382,0.1375,0.1369,0.136,0.1371,0.1355,0.1353,0.1343,0.1346,0.1345,0.1272,0.1271,0.1233,0.1213,0,0,0,0.1387,0.1378,0.1375,0.1374,0.1369,0.1361,0.1362,0.1355,0.1356,0.1347,0.1345,0.1273,0.1271,0.1235,0.1217,0.1188,0,0,0,0.1379,0.1341,0.1374,0.1333,0.1369,0.1337,0.1362,0.1339,0.1327,0.1346,0.1272,0.1271,0.1236,0.1219,0.119,0.1159,0.1146,0,0,0.1324,0.1333,0.131,0.134,0.1298,0.134,0.1293,0.1293,0.1303,0.128,0.1279,0.1232,0.1217,0.1188,0.1081,0.107,0,0,0,0.1288,0.127,0.1262,0.125,0.125,0.1247,0.1256,0.1255,0.1237,0.1289,0.1216,0.1207,0.1191,0.1176,0.1167,0.1152,0.1265,0.1265,0.1265,0.119,0.1205,0.1167,0.118,0.1168,0.1177,0.1168,0.1169,0.1188,0.117,0.1163,0.1096,0.1079,0.1072,0.1057,0.115,0.115,0.115,0.115,0.1108,0.1084,0.111,0.1082,0.1097,0.1073,0.108,0.1094,0.1072,0.1103,0.1089,0.1119,0.106,0.1047,0.1147,0.1147,0.1148,0.1148,0.1148,0.1043,0.1034,0.1035,0.1018,0.1003,0.1018,0.0996,0.1012,0.1026,0.1013,0.1005,0.1005,0.1006,0.1009,0.1008,0.1008,0.1008,0.1008,0.1008,0.0974,0.0977,0.0956,0.0952,0.0945,0.0939,0.0947,0.0941,0.0937,0.095,0.095,0.0968,0.1053,0.1072,0.1004,0.1005,0.1005,0.1005,0.1006,0.0879,0.0903,0.0872,0.0865,0.086,0.0843,0.0864,0.0849,0.0846,0.0834,0.0856,0.0917,0.0928,0.0935,0.0951,0.0855,0.0855,0.0855,0.0855,0.0822,0.083,0.08,0.0788,0.0779,0.0794,0.0755,0.0761,0.077,0.0769,0.0786,0.0809,0.0816,0.0822,0.0832,0.0846,0.0727,0.0727,0.0726,0.0763,0.0771,0.0735,0.0746,0.0743,0.074,0.0703,0.0687,0.0703,0.0721,0.0767,0.0773,0.081,0.0822,0.084,0.0854,0.0882,0,0]},{"header":{"parameterUnit":"m.s-1","parameterCategory":1,"la1":30.2992,"la2":30.254,"lo1":-89.0895,"lo2":-89.0443,"dy":0.0025,"dx":0.0025,"nx":19,"ny":19,"refTime":"2026-03-18T09:00:00:Z","depth":0,"parameterNumber":3,"parameterNumberName":"V-component_of_WINDS"},"data":[0,0,0,2.552,2.552,2.5525,2.5525,2.5539,2.5539,0,0,0,0,0,0,0,0,0,0,0,2.5524,2.5524,2.5519,2.552,2.5525,2.5525,2.5538,2.5539,0,0,0,0,0,0,0,0,0,0,0,2.5524,2.5524,2.5525,2.552,2.5525,2.5525,2.5538,2.5532,0,0,0,0,0,0,0,0,0,0,2.5525,2.5536,2.5524,2.5525,2.552,2.5525,2.5525,2.5531,2.5532,2.554,0,2.5549,0,2.5544,2.554,2.554,0,0,0,2.5515,2.5535,2.5531,2.5525,2.552,2.5525,2.5521,2.5532,2.5533,2.5541,2.555,2.555,2.5545,2.554,2.5541,2.5602,2.5602,0,0,2.5515,2.5528,2.553,2.5532,2.5533,2.5521,2.5521,2.5532,2.5542,2.555,2.555,2.5545,2.5541,2.5541,2.5601,2.5602,0,0,0,2.5517,2.5528,2.5523,2.5532,2.5532,2.5521,2.5522,2.5541,2.5539,2.555,2.5545,2.5541,2.5541,2.5601,2.5601,2.5638,0,0,0,2.5517,2.5529,2.5524,2.5532,2.5532,2.5537,2.5531,2.5538,2.5539,2.5545,2.5541,2.5541,2.56,2.5601,2.5636,2.5653,0,0,0,2.5522,2.553,2.5533,2.5532,2.5535,2.5537,2.5535,2.5538,2.5536,2.554,2.5541,2.56,2.5601,2.5634,2.5649,2.5671,0,0,0,2.553,2.5566,2.5533,2.5571,2.5535,2.556,2.5534,2.5552,2.5561,2.5541,2.56,2.5601,2.5633,2.5647,2.5669,2.569,2.5701,0,0,2.5582,2.5573,2.5594,2.5565,2.5599,2.5558,2.5597,2.5592,2.5581,2.5595,2.5596,2.5636,2.5649,2.567,2.5759,2.5768,0,0,0,2.5615,2.563,2.5636,2.5644,2.5642,2.564,2.5628,2.5625,2.5637,2.5591,2.5651,2.5658,2.567,2.5679,2.5686,2.5695,2.5607,2.5607,2.5607,2.5707,2.569,2.5722,2.5706,2.5714,2.57,2.5705,2.5699,2.568,2.5694,2.5698,2.5754,2.5765,2.5771,2.578,2.5709,2.5709,2.571,2.571,2.578,2.5797,2.577,2.5792,2.5773,2.5791,2.5779,2.5764,2.5777,2.575,2.576,2.573,2.5781,2.5787,2.5712,2.5712,2.5711,2.5711,2.5711,2.5837,2.5842,2.5839,2.5848,2.5856,2.5838,2.585,2.5833,2.5817,2.5827,2.5827,2.5826,2.5822,2.5828,2.5829,2.5829,2.5829,2.5829,2.5829,2.5896,2.5891,2.5905,2.5904,2.5906,2.5906,2.5891,2.5892,2.5889,2.5875,2.5875,2.5852,2.579,2.5773,2.5832,2.5832,2.5831,2.5831,2.5831,2.5974,2.5953,2.5974,2.5976,2.5971,2.598,2.5958,2.596,2.5959,2.5965,2.5941,2.5898,2.5887,2.5881,2.5866,2.5946,2.5946,2.5946,2.5946,2.602,2.6013,2.6029,2.6032,2.6034,2.6016,2.6037,2.6025,2.601,2.6007,2.5993,2.5974,2.5969,2.596,2.5953,2.5939,2.6035,2.6035,2.6035,2.6066,2.6057,2.608,2.6065,2.606,2.6055,2.6074,2.6078,2.6056,2.6039,2.6004,2.6,2.5969,2.596,2.594,2.5929,2.5904,0,0]}]]